Cloud_Cover
100 100 100 100 100 100 100 100 100 100 100 100 100 100 86 100 100 100 84 30 91 79 44 99 98 89 100 100 100 100 100 100 100 100 100 100 100 100 100 100 100 100 100 25
100 100 100 100 100 100 100 100 100 100 100 100 100 100 100 100 98 87 40 81 100 98 100 100 100 100 100 100 100 100 100 89 99 100 100 100 100 100 100 100 100 100 100 98
100 100 100 100 100 100 100 100 100 100 100 100 100 100 100 100 100 98 20 7 100 100 100 100 100 100 100 100 100 100 100 99 91 100 100 100 99 100 100 100 100 100 100 100
100 100 100 100 100 100 100 100 100 100 100 100 100 100 100 100 100 100 100 64 35 68 100 100 100 100 100 100 100 100 100 100 100 100 100 100 100 100 100 100 100 100 100 100
100 100 100 100 100 100 100 100 100 100 100 100 100 100 100 100 100 48 100 100 81 98 100 100 100 100 100 100 100 100 100 100 100 100 100 100 100 100 100 100 100 100 100 100
100 100 100 100 100 100 100 100 100 100 100 100 100 100 100 100 100 98 100 99 94 100 100 100 100 100 100 100 100 100 100 100 100 100 100 100 100 100 100 100 100 100 100 100
100 100 100 100 100 100 100 100 100 100 100 100 100 100 100 100 100 100 100 100 100 88 100 100 100 100 100 100 100 100 100 100 100 100 100 100 100 100 100 100 100 100 100 100
100 100 100 100 100 100 100 100 100 100 100 100 100 100 100 100 100 100 100 100 100 100 100 100 100 100 100 100 100 100 100 100 100 100 100 100 100 100 100 100 100 100 100 100
100 100 100 100 100 100 100 100 100 100 100 100 100 100 100 100 100 100 100 100 100 100 100 100 100 100 100 100 100 100 100 100 100 100 100 100 100 100 100 100 100 100 100 100
100 100 100 100 100 100 100 100 100 100 100 100 100 100 100 100 100 100 100 100 100 100 100 100 100 100 100 100 100 100 100 100 100 100 100 100 100 100 100 100 100 100 100 100
100 96 100 100 100 100 100 100 100 100 100 100 100 100 100 100 100 100 100 100 100 100 100 100 100 100 100 100 100 100 100 100 100 100 100 100 100 100 100 100 100 100 100 100
100 100 100 100 100 100 100 100 100 100 100 100 100 100 100 100 100 100 100 100 100 100 100 100 100 100 100 100 100 100 100 100 100 100 100 100 100 100 100 100 100 100 100 100
100 100 100 100 100 100 100 100 100 100 100 100 100 100 100 100 100 100 100 100 100 100 100 100 100 100 100 100 100 100 100 100 100 100 100 100 100 100 100 100 100 100 100 100
100 100 99 60 56 100 100 100 100 100 100 100 100 100 100 100 100 100 100 100 100 100 100 100 100 100 100 100 100 100 100 100 100 100 100 100 100 100 100 100 100 100 100 100
100 100 52 96 88 98 100 100 100 100 100 100 100 100 100 100 100 100 100 100 100 100 100 100 100 100 100 100 100 100 100 100 100 100 100 100 100 100 100 100 100 100 100 100
100 100 29 59 41 57 90 96 100 100 100 100 100 100 100 100 100 100 100 100 100 100 100 100 100 100 100 100 100 100 100 100 100 100 100 100 100 100 100 100 100 100 100 100
100 91 90 75 100 25 5 4 54 70 100 100 100 100 100 100 100 100 100 100 100 100 100 100 100 100 100 100 100 100 100 100 100 100 100 100 100 100 100 100 100 100 100 100
100 100 100 87 26 68 2 0 0 1 0 30 98 100 100 100 100 100 100 100 100 100 100 100 100 100 100 100 100 100 100 100 100 100 100 100 100 100 100 100 100 100 100 100
100 100 100 99 92 5 0 0 0 0 0 0 4 10 16 93 100 100 100 100 100 100 100 100 100 100 100 100 100 100 100 100 100 100 100 100 100 100 100 100 100 100 100 94
100 100 100 100 81 5 0 0 0 0 4 0 0 0 3 1 30 99 100 100 100 100 100 100 100 100 100 100 100 100 100 100 100 100 100 100 100 100 100 100 28 3 0 0
100 100 93 93 81 5 1 1 0 2 0 0 0 0 3 0 0 0 0 0 1 8 47 72 97 87 100 100 100 100 100 100 100 100 100 70 49 53 0 0 0 0 0 0
90 100 80 68 99 42 60 35 8 5 5 0 0 0 0 0 0 0 0 0 0 5 8 74 94 100 100 92 94 99 95 66 68 2 0 3 5 2 0 5 5 2 0 1
79 6 68 5 5 9 5 5 5 5 5 0 0 0 1 0 0 0 0 0 0 5 5 39 65 75 56 79 88 99 82 58 3 5 5 5 5 5 5 5 5 5 5 5
15 5 5 5 5 0 0 5 5 1 4 5 5 4 5 4 3 5 5 5 5 2 5 5 5 5 26 80 89 94 28 5 5 8 5 5 5 5 5 5 5 5 5 5
92 50 74 100 7 1 3 4 0 0 0 0 0 0 0 0 0 0 0 0 0 0 3 3 5 5 5 27 42 5 5 5 5 5 5 5 5 5 5 5 5 5 4 4
65 53 54 47 22 4 0 4 2 0 0 0 0 0 0 0 0 0 0 2 2 4 5 5 5 5 5 5 5 5 5 5 5 5 5 5 5 5 5 5 5 5 5 5